[[{"header":{"parameterUnit":"m.s-1","parameterCategory":1,"la1":30.2991,"la2":30.254,"lo1":-89.0895,"lo2":-89.0444,"dy":0.0017,"dx":0.0017,"nx":28,"ny":28,"refTime":"2024-04-06T03:00:00:Z","depth":0,"parameterNumber":2,"parameterNumberName":"U-component_of_WINDS"},"data":[0,0,0,0,0,0,0,0,0,0,0,0,0,0,0,0,0,0,0,0,0,0,0,0,0,0,0,0,0,0,0,0,0,0,0,0,0,0,0,0,0,0,0,0,0,0,0,0,0,0,0,0,0,0,0,0,0,0,-2.9814,-2.9814,0,-2.983,-2.9831,-2.9831,-2.9765,-2.9763,-2.9761,-2.9759,-2.9775,-2.9777,-2.9779,0,0,0,0,0,0,0,0,0,0,0,0,0,-2.9725,-2.9727,-2.9814,-2.9814,-2.9814,-2.983,-2.9831,-2.9831,-2.9765,-2.9763,-2.9761,-2.9758,-2.9774,-2.9777,-2.978,0,0,0,0,0,0,0,0,0,0,0,0,0,-2.9755,-2.9728,-2.9814,-2.9784,-2.9781,-2.983,-2.9831,-2.9831,-2.9766,-2.9763,-2.976,-2.9757,-2.9773,-2.9777,-2.978,-2.9859,0,0,-2.979,-2.9792,0,0,0,0,0,0,0,0,-2.9753,-2.9758,-2.9788,-2.9786,-2.9783,-2.9793,-2.9805,-2.984,-2.9766,-2.9772,-2.9759,-2.9756,-2.9783,-2.9786,-2.9795,-2.986,-2.986,-2.9791,-2.9793,-2.9794,-2.9795,0,0,0,0,0,0,0,-2.9751,-2.9757,-2.982,-2.9788,-2.9786,-2.9769,-2.977,-2.9811,-2.9793,-2.9771,-2.9766,-2.9769,-2.9781,-2.9792,-2.9795,-2.9861,-2.979,-2.9793,-2.9796,-2.9797,-2.999,-2.9993,0,0,0,0,0,0,-2.9753,-2.9756,-2.982,-2.9821,-2.9761,-2.9773,-2.9774,-2.9793,-2.9793,-2.979,-2.9772,-2.9766,-2.9788,-2.9791,-2.9795,-2.9887,-2.9794,-2.9797,-2.9799,-2.9987,-2.9991,-2.9994,0,0,0,0,0,0,-2.9752,-2.976,-2.9819,-2.9787,-2.9793,-2.9778,-2.9799,-2.9794,-2.9805,-2.9793,-2.979,-2.9786,-2.9786,-2.9791,-2.9843,-2.9886,-2.9799,-2.9802,-2.9983,-2.9988,-2.9992,-3.0071,0,0,0,0,0,0,-2.9749,-2.9759,-2.9789,-2.9788,-2.9795,-2.9868,-2.9801,-2.9797,-2.9811,-2.9804,-2.9806,-2.9803,-2.9784,-2.9839,-2.9847,-2.9889,-2.9804,-2.9979,-2.9985,-2.9991,-3.0064,-3.0078,-3.0089,0,0,0,0,0,-2.9746,-2.9811,-2.9791,-2.9799,-2.9833,-2.987,-2.9874,-2.9851,-2.9815,-2.9844,-2.9837,-2.9803,-2.9881,-2.9845,-2.9853,-2.9897,-2.9976,-2.9984,-2.999,-3.0059,-3.0075,-3.0089,0,0,0,0,0,0,-2.9817,-2.981,-2.9788,-2.9855,-2.9864,-2.9859,-2.9896,-2.9869,-2.9888,-2.988,-2.985,-2.9851,-2.9909,-2.9909,-2.9869,-2.9973,-2.9922,-2.9931,-2.9971,-2.9987,-2.9999,-2.9997,-2.9807,0,0,0,0,0,-2.9841,-2.9872,-2.9864,-2.9923,-2.9929,-2.9912,-2.9928,-2.9909,-2.9917,-2.992,-2.9916,-2.9925,-2.9951,-2.9969,-2.9993,-3.0064,-3.0063,-3.0099,-3.0111,-3.0121,-3.0129,-3.0166,-3.0181,-3.0017,-3.0017,-3.0017,0,0,-2.9889,-2.9889,-2.9911,-2.9938,-2.9942,-2.9975,-2.9916,-2.9953,-2.9977,-2.9925,-2.9975,-2.9973,-2.9981,-3.0043,-3.007,-3.0044,-3.0175,-3.013,-3.0139,-3.0141,-3.0175,-3.019,-3.0204,-3.0022,-3.0021,-3.002,0,0,-2.9994,-2.9998,-3.0047,-3.0053,-3.0061,-3.0049,-3.0061,-3.0061,-3.0058,-3.0107,-3.0069,-3.0097,-3.0143,-3.015,-3.0159,-3.0267,-3.0236,-3.0276,-3.034,-3.0376,-3.0389,-3.04,-3.0437,-3.0451,-3.0284,-3.0284,-3.0284,0,-3.0053,-3.0101,-3.0075,-3.0115,-3.0128,-3.0083,-3.0132,-3.014,-3.0155,-3.0164,-3.0136,-3.0192,-3.0194,-3.0257,-3.0283,-3.0293,-3.0305,-3.0275,-3.0389,-3.04,-3.041,-3.0445,-3.046,-3.0289,-3.0288,-3.0288,-3.0287,0,-3.0172,-3.0206,-3.0245,-3.0261,-3.0278,-3.0323,-3.0303,-3.0324,-3.0304,-3.0295,-3.0345,-3.0347,-3.0369,-3.0383,-3.0364,-3.0443,-3.0427,-3.0394,-3.0342,-3.0431,-3.0463,-3.0477,-3.0295,-3.0294,-3.0292,-3.0291,0,0,-3.0321,-3.0323,-3.0337,-3.0343,-3.0349,-3.0375,-3.0417,-3.044,-3.0457,-3.047,-3.0503,-3.0544,-3.0513,-3.0524,-3.0506,-3.0538,-3.0622,-3.0501,-3.05,-3.0522,-3.0708,-3.0731,-3.0747,-3.0602,-3.0604,-3.0606,-3.0707,0,-3.0423,-3.0495,-3.0473,-3.0546,-3.0576,-3.0535,-3.0571,-3.0579,-3.0572,-3.0597,-3.0589,-3.0618,-3.0576,-3.0582,-3.0612,-3.0605,-3.0658,-3.0598,-3.0632,-3.0634,-3.063,-3.0765,-3.079,-3.0884,-3.0719,-3.0722,-3.0723,0,-3.0551,-3.0568,-3.0644,-3.0644,-3.0656,-3.0689,-3.0707,-3.0732,-3.0739,-3.0732,-3.0745,-3.0719,-3.076,-3.0709,-3.0765,-3.0724,-3.0737,-3.0736,-3.0739,-3.074,-3.0683,-3.0768,-3.0914,-3.0928,-3.0743,-3.0741,-3.074,0,-3.065,-3.0692,-3.0743,-3.075,-3.0752,-3.0776,-3.0778,-3.0782,-3.0797,-3.0813,-3.0822,-3.0843,-3.0855,-3.0871,-3.0852,-3.0817,-3.091,-3.0858,-3.0904,-3.0905,-3.0925,-3.0923,-3.1073,-3.0936,-3.0936,-3.0935,-3.0935,0,-3.0765,-3.0812,-3.0787,-3.0818,-3.087,-3.0845,-3.0897,-3.0894,-3.0898,-3.0927,-3.0894,-3.0922,-3.0895,-3.0921,-3.0906,-3.0954,-3.096,-3.0954,-3.0949,-3.0956,-3.0957,-3.0963,-3.0956,-3.0939,-3.0938,-3.0938,-3.0937,0,-3.0884,-3.0869,-3.0921,-3.0919,-3.0919,-3.0957,-3.0955,-3.0983,-3.0974,-3.1012,-3.1019,-3.1005,-3.1033,-3.1016,-3.1045,-3.1035,-3.1097,-3.1084,-3.1094,-3.109,-3.1137,-3.1133,-3.1296,-3.1315,-3.1167,-3.1168,-3.1169,0,-3.0958,-3.0993,-3.0995,-3.1012,-3.1016,-3.1044,-3.1059,-3.1036,-3.1052,-3.1063,-3.109,-3.1116,-3.1135,-3.1182,-3.1174,-3.1196,-3.1182,-3.1238,-3.1185,-3.1191,-3.1182,-3.1179,-3.1182,-3.1248,-3.125,-3.1251,-3.1252,0,-3.109,-3.108,-3.1103,-3.1124,-3.1142,-3.1157,-3.1169,-3.1185,-3.1162,-3.1182,-3.1211,-3.1226,-3.1255,-3.1281,-3.1299,-3.13,-3.1273,-3.1269,-3.1281,-3.1288,-3.1292,-3.1289,-3.1122,-3.1265,-3.1264,-3.1263,-3.1262,-3.1262,-3.1187,-3.1216,-3.1222,-3.1248,-3.1255,-3.1267,-3.1293,-3.1287,-3.1311,-3.1333,-3.1318,-3.1352,-3.1358,-3.138,-3.1385,-3.141,-3.1388,-3.1405,-3.1409,-3.1414,-3.1419,-3.1289,-3.1414,-3.1413,-3.1413,-3.1413,-3.1412,0,-3.1316,-3.1318,-3.1342,-3.136,-3.1381,-3.1353,-3.1365,-3.1384,-3.1414,-3.1422,-3.1441,-3.1474,-3.1499,-3.1493,-3.1515,-3.1537,-3.1524,-3.1543,-3.154,-3.1541,-3.1439,-3.1426,-3.1553,-3.1552,-3.1552,-3.1552,-3.1552,-3.1552,-3.1386,-3.1433,-3.1425,-3.1476,-3.1477,-3.1509,-3.1518,-3.1529,-3.1535,-3.1573,-3.1593,-3.1589,-3.1592,-3.1614,-3.1635,-3.1632,-3.1642,-3.1665,-3.1658,-3.1562,-3.1548,-3.1535,-3.1523,-3.1667,-3.1668,-3.1757,-3.1758,-3.1759]},{"header":{"parameterUnit":"m.s-1","parameterCategory":1,"la1":30.2991,"la2":30.254,"lo1":-89.0895,"lo2":-89.0444,"dy":0.0017,"dx":0.0017,"nx":28,"ny":28,"refTime":"2024-04-06T03:00:00:Z","depth":0,"parameterNumber":3,"parameterNumberName":"V-component_of_WINDS"},"data":[0,0,0,0,0,0,0,0,0,0,0,0,0,0,0,0,0,0,0,0,0,0,0,0,0,0,0,0,0,0,0,0,0,0,0,0,0,0,0,0,0,0,0,0,0,0,0,0,0,0,0,0,0,0,0,0,0,0,3.1143,3.1144,0,3.1185,3.1186,3.1186,3.115,3.1149,3.1147,3.1146,3.1185,3.1188,3.119,0,0,0,0,0,0,0,0,0,0,0,0,0,3.1028,3.103,3.1143,3.1144,3.1144,3.1185,3.1186,3.1187,3.115,3.1149,3.1147,3.1145,3.1184,3.1187,3.119,0,0,0,0,0,0,0,0,0,0,0,0,0,3.1075,3.1031,3.1143,3.1131,3.1131,3.1185,3.1186,3.1187,3.1151,3.1149,3.1146,3.1144,3.1184,3.1187,3.1191,3.1258,0,0,3.1202,3.1203,0,0,0,0,0,0,0,0,3.1072,3.1079,3.1133,3.1132,3.1132,3.116,3.116,3.121,3.1151,3.1143,3.1146,3.1143,3.1179,3.1182,3.1195,3.126,3.1261,3.1202,3.1204,3.1206,3.1207,0,0,0,0,0,0,0,3.1069,3.1077,3.116,3.1133,3.1133,3.1123,3.1127,3.1169,3.1173,3.1144,3.1141,3.1147,3.1178,3.1192,3.1196,3.1262,3.1202,3.1205,3.1208,3.1209,3.1383,3.1385,0,0,0,0,0,0,3.1067,3.1074,3.1159,3.1161,3.1096,3.1127,3.1131,3.1153,3.1172,3.1173,3.1149,3.1145,3.1187,3.1192,3.1197,3.1276,3.1206,3.1209,3.1211,3.1381,3.1383,3.1386,0,0,0,0,0,0,3.1065,3.1075,3.1157,3.1117,3.1127,3.1131,3.1156,3.1155,3.1169,3.1176,3.1176,3.1162,3.1185,3.1192,3.1243,3.1277,3.1211,3.1214,3.1378,3.1381,3.1385,3.1436,0,0,0,0,0,0,3.1062,3.1075,3.1101,3.1118,3.1129,3.1203,3.1158,3.1158,3.1176,3.1172,3.1189,3.119,3.1184,3.1238,3.1247,3.1281,3.1217,3.1375,3.1379,3.1384,3.1431,3.1441,3.1449,0,0,0,0,0,3.1058,3.1113,3.1103,3.1113,3.1163,3.1206,3.1212,3.1205,3.1179,3.1205,3.1209,3.1189,3.1272,3.1243,3.1253,3.1289,3.1372,3.1378,3.1383,3.1427,3.1439,3.1449,0,0,0,0,0,0,3.1099,3.1115,3.1104,3.1166,3.1185,3.1199,3.1232,3.1218,3.1243,3.1238,3.1227,3.1231,3.1285,3.1292,3.126,3.1355,3.1318,3.1326,3.1348,3.1359,3.1368,3.1365,3.122,0,0,0,0,0,3.1115,3.115,3.1162,3.1216,3.1226,3.1228,3.1246,3.1239,3.1258,3.1265,3.1273,3.1291,3.132,3.134,3.1368,3.1432,3.1435,3.1462,3.1471,3.1478,3.1484,3.1518,3.1529,3.1404,3.1404,3.1404,0,0,3.1149,3.1162,3.1185,3.1225,3.1238,3.1273,3.1234,3.1273,3.1298,3.127,3.1319,3.1326,3.1345,3.1403,3.1428,3.141,3.152,3.1485,3.1491,3.1493,3.1525,3.1536,3.1547,3.1408,3.1407,3.1406,0,0,3.1229,3.1243,3.1289,3.1304,3.1326,3.1326,3.1337,3.1354,3.1358,3.1407,3.1387,3.1416,3.1468,3.1482,3.1496,3.1582,3.1564,3.1591,3.1637,3.167,3.168,3.1689,3.1718,3.1729,3.1598,3.1598,3.1598,0,3.1268,3.1321,3.1314,3.1355,3.1372,3.135,3.1396,3.141,3.1439,3.1451,3.1431,3.1496,3.1507,3.1567,3.1588,3.1601,3.1612,3.1589,3.1679,3.1688,3.1696,3.1724,3.1735,3.1601,3.1601,3.16,3.16,0,3.1367,3.1405,3.1439,3.1469,3.1491,3.1534,3.1532,3.1555,3.1546,3.1549,3.1599,3.1612,3.1641,3.1655,3.1647,3.1715,3.1703,3.1681,3.1644,3.1711,3.1737,3.1748,3.1605,3.1604,3.1603,3.1603,0,0,3.1473,3.15,3.1512,3.1525,3.1548,3.1576,3.1617,3.1648,3.1667,3.1687,3.1721,3.1766,3.1746,3.1762,3.1755,3.1784,3.185,3.1759,3.1759,3.1775,3.1924,3.1939,3.1952,3.1839,3.1841,3.1842,3.1922,0,3.1553,3.1627,3.1622,3.1691,3.1724,3.1703,3.1739,3.1756,3.176,3.1788,3.1791,3.1823,3.1795,3.1804,3.1832,3.1836,3.188,3.183,3.1868,3.187,3.1863,3.1965,3.1982,3.2056,3.1932,3.1934,3.1935,0,3.1656,3.1681,3.1754,3.1771,3.1785,3.1817,3.1845,3.1872,3.1891,3.1891,3.1909,3.1897,3.1938,3.1901,3.1956,3.1923,3.1938,3.1943,3.1945,3.1947,3.1906,3.1969,3.208,3.2091,3.1951,3.195,3.1949,0,3.1724,3.1777,3.1827,3.1839,3.186,3.1884,3.1893,3.191,3.1928,3.1952,3.1963,3.1991,3.2006,3.2027,3.2023,3.1996,3.2079,3.2041,3.2079,3.2079,3.2096,3.2095,3.221,3.2108,3.2108,3.2108,3.2108,0,3.1813,3.1858,3.1858,3.1889,3.1938,3.1932,3.198,3.1987,3.2002,3.2032,3.2016,3.2045,3.2038,3.2066,3.2063,3.2109,3.2116,3.2116,3.2114,3.2117,3.2117,3.2126,3.212,3.2111,3.211,3.211,3.2109,0,3.1898,3.19,3.1953,3.1969,3.1974,3.201,3.2023,3.2051,3.2054,3.2093,3.2101,3.2105,3.2137,3.2135,3.2171,3.2169,3.2225,3.2218,3.2219,3.2217,3.2255,3.2251,3.2378,3.2394,3.2284,3.2285,3.2286,0,3.1954,3.1989,3.2009,3.2029,3.204,3.2073,3.2092,3.2087,3.2107,3.2131,3.2156,3.2187,3.2212,3.2264,3.2269,3.2297,3.2289,3.2332,3.2293,3.2294,3.2289,3.2286,3.2289,3.2339,3.234,3.2341,3.2342,0,3.2054,3.2053,3.2082,3.2111,3.2135,3.2157,3.2178,3.2195,3.2191,3.2215,3.2249,3.2268,3.2305,3.2336,3.2362,3.2371,3.2356,3.2355,3.2365,3.2367,3.2366,3.2366,3.2239,3.2352,3.2351,3.235,3.2349,3.2349,3.2125,3.2154,3.2173,3.2206,3.2221,3.224,3.2268,3.2274,3.2302,3.2333,3.2328,3.2366,3.2382,3.2416,3.2428,3.2456,3.244,3.2455,3.2459,3.2462,3.2466,3.2363,3.2461,3.246,3.246,3.246,3.246,0,3.2223,3.2234,3.2264,3.2294,3.2319,3.2304,3.2326,3.2348,3.2381,3.2399,3.2424,3.2462,3.2492,3.2499,3.2527,3.2549,3.2542,3.2556,3.2554,3.2556,3.2479,3.2467,3.2561,3.2561,3.2561,3.2561,3.2561,3.2561,3.2277,3.2325,3.2327,3.2382,3.2392,3.243,3.2443,3.2461,3.2475,3.2519,3.2544,3.2549,3.2562,3.2591,3.2617,3.2619,3.2629,3.2646,3.2644,3.2572,3.2561,3.2552,3.254,3.2648,3.2649,3.2719,3.272,3.272]}]]